Location: Liberty
(32.6612°N, 88.7589°W)
Time: 21:33:36
(UTC+00:00)

Hubble Space Telescope - Visible Passes

Search period start: 21 January 2022 00:00
Search period end: 31 January 2022 00:00
Orbit: 535 x 538 km, 28.5° (Epoch: 21 January)

Date Brightness Start Highest point End Pass type
(mag) Time Alt. Az. Time Alt. Az. Time Alt. Az.
21 Jan 2.9 11:13:11 15° SSW 11:13:11 15° SSW 11:15:26 10° SSE visible
22 Jan 3.3 11:02:41 12° S 11:02:41 12° S 11:03:24 10° S visible
28 Jan 3.3 01:27:24 10° SSW 01:28:05 12° S 01:28:05 12° S visible
29 Jan 2.8 01:15:37 10° SSW 01:17:37 18° S 01:17:37 18° S visible
30 Jan 2.4 01:03:58 10° SW 01:07:07 23° SSE 01:07:07 23° SSE visible
